GPS BIIR-13 (PRN 02)

Last updated on Thu Aug 20 2026 00:03:18 GMT+0000 (Coordinated Universal Time)

1 28474U 04045A 26231.60006883 -.00000103 00000+0 00000+0 0 9996 2 28474 55.0946 322.3406 0171089 317.9279 25.7450 2.00558796159695
UTC large
Height (km)
Speed (km/s)
/
Latitude / Longitude
Inclination (degrees)
Orbital Period (minutes)
Azimuth
Elevation
Range (km)
Doppler Factor

Next 0 passes for location: London (51.5072 / 0.1276)

No passes found over London.